Find Starlink 11613

NORAD ID: 63136 Int'l Des: 2025-043 Owner: SPXS Country: US Constellation: starlink operational
別名: STARLINK-11613 [DTC] celestrak
LEOCIRCULAR

現在のビュー

3D地球を読み込み中...

About Starlink 11613

Starlink 11613 (NORAD 63136) is a starlink constellation satellite (v2 mini d2c) launched Mar 3, 2025 by SPXS of US. It operates in LEO, CIRCULAR orbit with a mass of 960.00 kg.

次回通過

Passes for default location (London). Set your location on the main map for personalized predictions.

高度履歴

Loading altitude history...

軌道要素

1 63136U 25043E 26264.11406741 .00147237 00000-0 11289-2 0 9994
2 63136 42.9994 153.0951 0001422 302.6319 57.4412 15.70879182 90207
Epoch: Sep 21, 2026 • Age: 19 hours

現在のステータス

高度 359.5 km
遠地点 / 近地点 N/A
速度 7.70 km/s
衛星直下点 42.10°N, 69°W
打ち上げ日 Mar 3, 2025
運用期間 1.5 years
タイプ internet

技術仕様

分類 Payload
質量 960.00 kg
乾燥質量 910.00 kg
長さ 0.30 m
スパン 29.00 m
形状 ? Box + pan
製造者 SPXS
バスタイプ Starlink V2MD
フェーズステータス In Orbit
所有者/国 SPXS/US

Most Searched